This is the latest recevied weather packets stored in our database for station/object WX6HNX-4. If no packets are shown the sender has not sent any weather packets the latest 10 day(s).
| Time | Temp. | Humidity | Pressure | Rain* | Wind** | Luminosity | Snow |
|---|---|---|---|---|---|---|---|
| 1777391917 | 12.78° C | 65% | 1011.3 hPa | 0 mm | - | - | - |
| 1777391361 | 12.78° C | 65% | 1011.3 hPa | 0 mm | - | - | - |
| 1777389861 | 12.22° C | 66% | 1011.3 hPa | 0 mm | - | - | - |
| 1777389261 | 12.22° C | 66% | 1011.4 hPa | 0 mm | - | - | - |
| 1777387761 | 12.22° C | 64% | 1011.2 hPa | 0 mm | - | - | - |
| 1777387461 | 11.67° C | 65% | 1011 hPa | 0 mm | - | - | - |
| 1777384307 | 8.33° C | 81% | 1010.6 hPa | 0 mm | - | - | - |
| 1777382507 | 5.56° C | 81% | 1010.1 hPa | 0 mm | - | - | - |
| 1777382206 | 6.11° C | 80% | 1010 hPa | 0 mm | - | - | - |
| 1777381906 | 6.11° C | 78% | 1010 hPa | 0 mm | - | - | - |
| 1777381306 | 6.11° C | 79% | 1009.8 hPa | 0 mm | - | - | - |
| 1777381006 | 6.11° C | 78% | 1009.8 hPa | 0 mm | - | - | - |
| 1777380706 | 6.11° C | 76% | 1009.7 hPa | 0 mm | - | - | - |
| 1777379206 | 9.44° C | 68% | 1009.4 hPa | 0 mm | - | - | - |
| 1777378006 | 7.78° C | 74% | 1009.4 hPa | 0 mm | - | - | - |
| 1777377706 | 7.78° C | 74% | 1009.4 hPa | 0 mm | - | - | - |
| 1777377407 | 7.78° C | 72% | 1009.4 hPa | 0 mm | - | - | - |
| 1777376436 | 8.33° C | 70% | 1009.2 hPa | 0 mm | - | - | - |
| 1777375836 | 8.33° C | 70% | 1009.1 hPa | 0 mm | - | - | - |
| 1777375536 | 8.89° C | 67% | 1009.1 hPa | 0 mm | - | - | - |
| 1777375236 | 9.44° C | 66% | 1009.1 hPa | 0 mm | - | - | - |
| 1777373436 | 8.89° C | 67% | 1009.1 hPa | 0 mm | - | - | - |
| 1777372236 | 8.89° C | 67% | 1009 hPa | 0 mm | - | - | - |
| 1777371935 | 9.44° C | 66% | 1009.1 hPa | 0 mm | - | - | - |
| 1777371036 | 10° C | 64% | 1009 hPa | 0 mm | - | - | - |
* Rain latest hour (hover to see other rain measurements)
** Current wind speed in m/s (hover to see current wind gust speed)